Americus, GA

1:37 AM EST on January 20, 2017 (GMT -0500)
Souther

Weather History for KACJ - November, 2012

Change the Weather History Date:

Monday, November 12, 2012

  Actual Average (KABY) Record (KABY)
Temperature  
Mean Temperature 66 °F -  
Max Temperature 78 °F 68 °F 90 °F (1986)
Min Temperature 55 °F 45 °F 25 °F (1991)
Cooling Degree Days 2    
Growing Degree Days 16 (Base 50)    
Moisture  
Dew Point 58 °F    
Average Humidity 82    
Maximum Humidity 100    
Minimum Humidity 44    
Precipitation  
Precipitation 0.00 in - - ()
Sea Level Pressure  
Sea Level Pressure 30.26 in    
Wind  
Wind Speed 5 mph ()    
Max Wind Speed 13 mph    
Max Gust Speed 20 mph    
Visibility 9.8 miles    
Events Rain    
Averages and records for this station are not official NWS values.
T = Trace of Precipitation, MM = Missing Value Source: Averaged Metar Reports

Daily Weather History Graph

Daily Weather History Graph

Search for Another Location

Airport or City:

Trip Planner

Search our weather history database for the weather conditions in past years. The results will help you decide how hot, cold, wet, or windy it might be!

Date:

Astronomy

Nov. 12, 2012 Rise Set
Actual Time 7:03 AM EST 5:38 PM EST
Civil Twilight 6:37 AM EST 6:03 PM EST
Nautical Twilight 6:08 AM EST 6:33 PM EST
Astronomical Twilight 5:39 AM EST 7:02 PM EST
Moon 5:30 AM EST (11/12) 4:41 PM EST (11/12)
Length of Visible Light 11h 26m
Length of Day
10h 34m
Waning Crescent, 2% of the Moon is Illuminated
Nov 12
Waning Crescent
Nov 13
New
Nov 20
First Quarter
Nov 28
Full
Dec 6
Last Quarter

Hourly Weather History & Observations

Time (EST) Temp. Dew Point Humidity Pressure Visibility Wind Dir Wind Speed Gust Speed Precip Events Conditions
12:15 AM 57.2 °F 53.6 °F 88% 30.31 in 10.0 mi SE 4.6 mph - N/A   Clear
12:35 AM 59.0 °F 55.4 °F 88% 30.31 in 10.0 mi SE 4.6 mph - N/A   Clear
12:55 AM 59.0 °F 55.4 °F 88% 30.31 in 10.0 mi SE 4.6 mph - N/A   Clear
1:15 AM 59.0 °F 55.4 °F 88% 30.30 in 10.0 mi SE 5.8 mph - N/A   Clear
1:55 AM 57.2 °F 55.4 °F 94% 30.30 in 10.0 mi ESE 4.6 mph - N/A   Clear
2:15 AM 57.2 °F 55.4 °F 94% 30.30 in 10.0 mi ESE 3.5 mph - N/A   Clear
2:35 AM 55.4 °F 55.4 °F 100% 30.29 in 10.0 mi ESE 3.5 mph - N/A   Clear
2:55 AM 55.4 °F 55.4 °F 100% 30.29 in 10.0 mi ESE 4.6 mph - N/A   Clear
3:15 AM 57.2 °F 55.4 °F 94% 30.28 in 10.0 mi ESE 4.6 mph - N/A   Clear
3:35 AM 57.2 °F 55.4 °F 94% 30.28 in 10.0 mi ESE 4.6 mph - N/A   Clear
3:55 AM 57.2 °F 55.4 °F 94% 30.27 in 10.0 mi SE 5.8 mph - N/A   Clear
4:15 AM 57.2 °F 55.4 °F 94% 30.27 in 10.0 mi ESE 3.5 mph - N/A   Clear
4:55 AM 55.4 °F 55.4 °F 100% 30.27 in 10.0 mi ESE 3.5 mph - N/A   Scattered Clouds
5:15 AM 55.4 °F 55.4 °F 100% 30.27 in 10.0 mi Calm Calm - N/A   Scattered Clouds
5:35 AM 55.4 °F 55.4 °F 100% 30.27 in 10.0 mi ESE 3.5 mph - N/A   Clear
5:55 AM 55.4 °F 55.4 °F 100% 30.27 in 10.0 mi Calm Calm - N/A   Clear
6:15 AM 55.4 °F 55.4 °F 100% 30.27 in 10.0 mi Calm Calm - N/A   Clear
6:35 AM 55.4 °F 55.4 °F 100% 30.28 in 10.0 mi Calm Calm - N/A   Clear
6:55 AM 55.4 °F 55.4 °F 100% 30.28 in 7.0 mi Calm Calm - N/A   Clear
7:15 AM 55.4 °F 55.4 °F 100% 30.28 in 7.0 mi Calm Calm - N/A   Clear
7:55 AM 55.4 °F 55.4 °F 100% 30.30 in 7.0 mi Calm Calm - N/A   Overcast
8:15 AM 59.0 °F 59.0 °F 100% 30.30 in 10.0 mi SE 3.5 mph - N/A   Overcast
8:35 AM 62.6 °F 59.0 °F 88% 30.30 in 10.0 mi SSE 4.6 mph - N/A   Overcast
8:55 AM 64.4 °F 60.8 °F 88% 30.31 in 10.0 mi SSE 6.9 mph - N/A   Scattered Clouds
9:15 AM 64.4 °F 60.8 °F 88% 30.31 in 10.0 mi SSE 6.9 mph - N/A   Clear
9:35 AM 66.2 °F 60.8 °F 83% 30.31 in 10.0 mi South 9.2 mph - N/A   Clear
9:55 AM 68.0 °F 60.8 °F 78% 30.30 in 10.0 mi South 6.9 mph - N/A   Clear
10:15 AM 69.8 °F 60.8 °F 73% 30.30 in 10.0 mi South 8.1 mph - N/A   Clear
10:35 AM 69.8 °F 60.8 °F 73% 30.29 in 10.0 mi SSE 9.2 mph - N/A   Clear
10:55 AM 71.6 °F 60.8 °F 69% 30.28 in 10.0 mi SSE 10.4 mph 18.4 mph N/A   Clear
11:15 AM 73.4 °F 60.8 °F 65% 30.28 in 10.0 mi South 12.7 mph 19.6 mph N/A   Scattered Clouds
11:35 AM 73.4 °F 59.0 °F 61% 30.27 in 10.0 mi SSW 11.5 mph 19.6 mph N/A   Scattered Clouds
11:55 AM 77.0 °F 59.0 °F 54% 30.26 in 10.0 mi South 11.5 mph 17.3 mph N/A   Scattered Clouds
12:15 PM 77.0 °F 59.0 °F 54% 30.25 in 10.0 mi SW 10.4 mph 17.3 mph N/A   Scattered Clouds
12:35 PM 77.0 °F 59.0 °F 54% 30.25 in 10.0 mi South 9.2 mph 17.3 mph N/A   Mostly Cloudy
12:55 PM 77.0 °F 59.0 °F 54% 30.24 in 10.0 mi South 10.4 mph 17.3 mph N/A   Mostly Cloudy
1:15 PM 77.0 °F 59.0 °F 54% 30.24 in 10.0 mi South 10.4 mph - N/A   Scattered Clouds
1:35 PM 77.0 °F 59.0 °F 54% 30.22 in 10.0 mi SW 9.2 mph - N/A   Scattered Clouds
1:55 PM 77.0 °F 55.4 °F 47% 30.21 in 10.0 mi South 8.1 mph - N/A   Scattered Clouds
2:15 PM 78.8 °F 55.4 °F 44% 30.21 in 10.0 mi SSW 10.4 mph 16.1 mph N/A   Scattered Clouds
2:35 PM 77.0 °F 55.4 °F 47% 30.20 in 10.0 mi SSW 10.4 mph 17.3 mph N/A   Scattered Clouds
2:55 PM 77.0 °F 57.2 °F 50% 30.20 in 10.0 mi SSW 8.1 mph - N/A   Scattered Clouds
3:15 PM 75.2 °F 57.2 °F 53% 30.20 in 10.0 mi SW 5.8 mph - N/A   Scattered Clouds
3:35 PM 75.2 °F 55.4 °F 50% 30.20 in 10.0 mi SSW 4.6 mph - N/A   Scattered Clouds
3:55 PM 75.2 °F 57.2 °F 53% 30.20 in 10.0 mi SSW 4.6 mph - N/A   Scattered Clouds
4:15 PM 75.2 °F 57.2 °F 53% 30.21 in 10.0 mi SSW 4.6 mph - N/A   Mostly Cloudy
4:35 PM 73.4 °F 55.4 °F 53% 30.21 in 10.0 mi SSW 5.8 mph - N/A   Scattered Clouds
4:55 PM 73.4 °F 55.4 °F 53% 30.21 in 10.0 mi South 5.8 mph - N/A   Scattered Clouds
5:35 PM 71.6 °F 55.4 °F 57% 30.22 in 10.0 mi SSW 5.8 mph - N/A   Overcast
5:55 PM 69.8 °F 59.0 °F 68% 30.22 in 10.0 mi SSW 5.8 mph - N/A Rain Light Rain
6:15 PM 66.2 °F 60.8 °F 83% 30.22 in 7.0 mi SSW 4.6 mph - N/A Rain Rain
6:35 PM 64.4 °F 62.6 °F 94% 30.22 in 10.0 mi Calm Calm - N/A Rain Light Rain
6:55 PM 64.4 °F 62.6 °F 94% 30.21 in 10.0 mi Calm Calm - N/A   Scattered Clouds
7:15 PM 62.6 °F 62.6 °F 100% 30.21 in 10.0 mi North 3.5 mph - N/A   Scattered Clouds
7:35 PM 62.6 °F 62.6 °F 100% 30.22 in 10.0 mi Calm Calm - N/A   Mostly Cloudy
7:55 PM 62.6 °F 62.6 °F 100% 30.23 in 10.0 mi Calm Calm - N/A   Overcast
8:35 PM 62.6 °F 62.6 °F 100% 30.23 in 10.0 mi Calm Calm - N/A   Light Drizzle
8:55 PM 62.6 °F 62.6 °F 100% 30.23 in 10.0 mi NW 4.6 mph - N/A   Mostly Cloudy
9:15 PM 62.6 °F 62.6 °F 100% 30.23 in 10.0 mi Calm Calm - N/A   Overcast
9:35 PM 62.6 °F 62.6 °F 100% 30.25 in 10.0 mi NW 4.6 mph - N/A   Overcast
9:55 PM 62.6 °F 62.6 °F 100% 30.24 in 10.0 mi WNW 6.9 mph - N/A   Overcast
10:15 PM 62.6 °F 62.6 °F 100% 30.24 in 10.0 mi WNW 4.6 mph - N/A Rain Light Rain
10:35 PM 62.6 °F 62.6 °F 100% 30.25 in 7.0 mi West 3.5 mph - N/A Rain Light Rain
10:55 PM 62.6 °F 62.6 °F 100% 30.23 in 10.0 mi NNE 5.8 mph - N/A   Light Drizzle
11:15 PM 62.6 °F 62.6 °F 100% 30.24 in 10.0 mi NW 4.6 mph - N/A   Overcast
11:35 PM 60.8 °F 60.8 °F 100% 30.24 in 10.0 mi NW 6.9 mph - N/A   Overcast
11:55 PM 59.0 °F 59.0 °F 100% 30.24 in 10.0 mi NNW 8.1 mph - N/A   Overcast